This is the latest recevied weather packets stored in our database for station/object AC5JC-1. If no packets are shown the sender has not sent any weather packets the latest 10 day(s).
| Time | Temp. | Humidity | Pressure | Rain* | Wind** | Luminosity | Snow |
|---|---|---|---|---|---|---|---|
| 1778013354 | 30.56° C | 47% | 1005.3 hPa | 0 mm | - | 545 W/m² | - |
| 1778011843 | 32.22° C | 58% | 1005.2 hPa | 0 mm | - | 682 W/m² | - |
| 1778010034 | 31.67° C | 59% | 1005.4 hPa | 0 mm | - | 579 W/m² | - |
| 1778008851 | 31.11° C | 61% | 1005.4 hPa | 0 mm | - | 579 W/m² | - |
| 1778007334 | 31.11° C | 62% | 1005.2 hPa | 0 mm | - | 763 W/m² | - |
| 1778006453 | 30° C | 62% | 1005.2 hPa | 0 mm | - | 696 W/m² | - |
| 1778005859 | 29.44° C | 65% | 1005.4 hPa | 0 mm | - | 593 W/m² | - |
| 1778005540 | 28.89° C | 66% | 1005.4 hPa | 0 mm | - | 435 W/m² | - |
| 1778004954 | 28.89° C | 66% | 1005.5 hPa | 0 mm | - | 477 W/m² | - |
| 1778003135 | 29.44° C | 64% | 1005.5 hPa | 0 mm | - | 520 W/m² | - |
| 1778002834 | 29.44° C | 64% | 1005.4 hPa | 0 mm | - | 500 W/m² | - |
| 1778002259 | 30° C | 66% | 1005.4 hPa | 0 mm | - | 464 W/m² | - |
| 1777999555 | 26.67° C | 75% | 1005.4 hPa | 0 mm | - | 418 W/m² | - |
| 1777999234 | 26.67° C | 75% | 1005.6 hPa | 0 mm | - | 427 W/m² | - |
| 1777996855 | 25° C | 79% | 1005 hPa | 0 mm | - | 385 W/m² | - |
| 1777995970 | 25° C | 80% | 1005.1 hPa | 0 mm | - | 356 W/m² | - |
| 1777991475 | 23.33° C | 83% | 1004.9 hPa | 0 mm | - | 263 W/m² | - |
| 1777989934 | 22.78° C | 85% | 1004.9 hPa | 0 mm | - | 155 W/m² | - |
| 1777987834 | 21.67° C | 88% | 1004.7 hPa | 0 mm | - | 119 W/m² | - |
| 1777987524 | 21.67° C | 88% | 1004.9 hPa | 0 mm | - | 86 W/m² | - |
| 1777986345 | 21.11° C | 89% | 1004.5 hPa | 0 mm | - | 85 W/m² | - |
| 1777985768 | 21.11° C | 89% | 1004.6 hPa | 0 mm | - | 65 W/m² | - |
| 1777985433 | 21.11° C | 89% | 1004.6 hPa | 0 mm | - | 59 W/m² | - |
| 1777985134 | 21.11° C | 89% | 1004.6 hPa | 0 mm | - | 49 W/m² | - |
| 1777979134 | 20° C | 91% | 1003.8 hPa | 0 mm | - | 0 W/m² | - |
* Rain latest hour (hover to see other rain measurements)
** Current wind speed in m/s (hover to see current wind gust speed)